Location: Dunedin
(45.8670°S, 170.5000°E)
Time: 22:00:56
(UTC+12:00)

ATLAS 3B R/B - Pass Details

Date: 24 January 2019
Orbit: 1029 x 1166 km, 63.8° (Epoch: 20 April)

Event Time Altitude Azimuth Distance (km) Brightness Sun altitude
Exits shadow 22:18:12 11° 59° (ENE) 2,950 4.4 -9.2°
Maximum altitude 22:20:28 12° 79° (ENE) 2,842 4.4 -9.5°
Drops below altitude 10° 22:23:06 10° 100° (E) 3,036 4.7 -9.8°
Sets 22:27:51 0° 127° (SE) 4,034 5.6 -10.5°
